"read_dt","SO2 (ppb)","flags","PMT voltage (V)","lamp voltage (V)","lamp intensity (Hz)","internal temp (C)","react chamber temp (C)","sample flow (l/min)","pres (mmHg)","SO2 bkg (ppb)","SO2 coefficient"
2015-08-24 00:00:00,2109E-3,5C000400,-0724,0822,12317,029.9,045.5,0.253,749.8,01.17,0.508
2015-08-24 00:01:00,2125E-3,5C000400,-0724,0821,12286,029.9,045.5,0.253,749.9,01.17,0.508
2015-08-24 00:02:00,2138E-3,5C000400,-0724,0821,12282,029.9,045.5,0.252,749.8,01.17,0.508
2015-08-24 00:03:00,2129E-3,5C000400,-0724,0821,12148,029.9,045.5,0.253,749.8,01.17,0.508
2015-08-24 00:04:00,2171E-3,5C000400,-0724,0821,12410,029.9,045.5,0.253,750.0,01.17,0.508
2015-08-24 00:05:00,2160E-3,5C000400,-0724,0822,12290,029.9,045.5,0.253,749.9,01.17,0.508
2015-08-24 00:06:00,2031E-3,5C000400,-0724,0821,12264,029.9,045.5,0.253,749.9,01.17,0.508
2015-08-24 00:07:00,1985E-3,5C000400,-0724,0822,12235,029.9,045.5,0.253,749.9,01.17,0.508
2015-08-24 00:08:00,2265E-3,5C000400,-0724,0821,12237,029.9,045.5,0.253,749.9,01.17,0.508
2015-08-24 00:09:00,2147E-3,5C000400,-0724,0821,12300,029.9,045.5,0.253,750.0,01.17,0.508
2015-08-24 00:10:00,2054E-3,5C000400,-0724,0822,12394,029.9,045.5,0.253,750.0,01.17,0.508
2015-08-24 00:11:00,2108E-3,5C000400,-0724,0821,12292,029.9,045.5,0.253,750.0,01.17,0.508
2015-08-24 00:12:00,2020E-3,5C000400,-0724,0822,12309,029.9,045.5,0.253,750.0,01.17,0.508
2015-08-24 00:13:00,2084E-3,5C000400,-0724,0822,12426,029.9,045.5,0.253,750.0,01.17,0.508
2015-08-24 00:14:00,2202E-3,5C000400,-0724,0821,12238,029.9,045.5,0.253,750.1,01.17,0.508
2015-08-24 00:15:00,2123E-3,5C000400,-0724,0821,12195,029.9,045.5,0.253,750.1,01.17,0.508
2015-08-24 00:16:00,2046E-3,5C000400,-0724,0821,12238,029.9,045.5,0.253,750.1,01.17,0.508
2015-08-24 00:17:00,2104E-3,5C000400,-0724,0821,12294,029.9,045.5,0.253,750.1,01.17,0.508
2015-08-24 00:18:00,2061E-3,5C000400,-0724,0821,12377,029.9,045.5,0.253,750.2,01.17,0.508
2015-08-24 00:19:00,2032E-3,5C000400,-0724,0821,12345,030.0,045.5,0.252,750.2,01.17,0.508
2015-08-24 00:20:00,2191E-3,5C000400,-0724,0821,12261,029.9,045.6,0.253,750.1,01.17,0.508
2015-08-24 00:21:00,2100E-3,5C000400,-0724,0821,12168,029.9,045.5,0.253,750.2,01.17,0.508
2015-08-24 00:22:00,2225E-3,5C000400,-0724,0821,12203,029.9,045.5,0.253,750.3,01.17,0.508
2015-08-24 00:23:00,1969E-3,5C000400,-0724,0821,12154,029.9,045.5,0.253,750.2,01.17,0.508
2015-08-24 00:24:00,2221E-3,5C000400,-0724,0822,12300,029.9,045.5,0.253,750.3,01.17,0.508
2015-08-24 00:25:00,2143E-3,5C000400,-0724,0822,12287,029.9,045.5,0.253,750.2,01.17,0.508
2015-08-24 00:26:00,2217E-3,5C000400,-0724,0821,12301,029.9,045.5,0.253,750.3,01.17,0.508
2015-08-24 00:27:00,2038E-3,5C000400,-0724,0822,12116,029.9,045.5,0.253,750.3,01.17,0.508
2015-08-24 00:28:00,2165E-3,5C000400,-0724,0822,12357,029.9,045.5,0.253,750.3,01.17,0.508
2015-08-24 00:29:00,2095E-3,5C000400,-0724,0821,12309,029.9,045.5,0.253,750.4,01.17,0.508
2015-08-24 00:30:00,2194E-3,5C000400,-0724,0822,12322,029.9,045.5,0.253,750.5,01.17,0.508
2015-08-24 00:31:00,2187E-3,5C000400,-0724,0822,12262,030.0,045.5,0.253,750.5,01.17,0.508
2015-08-24 00:32:00,2112E-3,5C000400,-0724,0822,12250,029.9,045.5,0.253,750.3,01.17,0.508
2015-08-24 00:33:00,2098E-3,5C000400,-0724,0821,12314,030.0,045.5,0.253,750.6,01.17,0.508
2015-08-24 00:34:00,2046E-3,5C000400,-0724,0820,12369,030.0,045.5,0.252,750.6,01.17,0.508
2015-08-24 00:35:00,2034E-3,5C000400,-0724,0821,12389,030.0,045.5,0.253,750.6,01.17,0.508
2015-08-24 00:36:00,1990E-3,5C000400,-0724,0821,12158,030.0,045.5,0.253,750.7,01.17,0.508
2015-08-24 00:37:00,2264E-3,5C000400,-0724,0821,12256,030.0,045.5,0.252,750.8,01.17,0.508
2015-08-24 00:38:00,2248E-3,5C000400,-0724,0821,12175,030.0,045.5,0.253,750.7,01.17,0.508
2015-08-24 00:39:00,2175E-3,5C000400,-0724,0821,12233,029.9,045.5,0.253,750.8,01.17,0.508
2015-08-24 00:40:00,2225E-3,5C000400,-0724,0822,12275,030.0,045.5,0.253,750.8,01.17,0.508
2015-08-24 00:41:00,2176E-3,5C000400,-0724,0821,12210,030.0,045.5,0.253,750.8,01.17,0.508
2015-08-24 00:42:00,2103E-3,5C000400,-0724,0821,12322,029.9,045.5,0.253,750.9,01.17,0.508
2015-08-24 00:43:00,2247E-3,5C000400,-0724,0821,12325,029.9,045.5,0.253,750.9,01.17,0.508
2015-08-24 00:44:00,2242E-3,5C000400,-0724,0822,12231,030.0,045.5,0.253,750.9,01.17,0.508
2015-08-24 00:45:00,2180E-3,5C000400,-0724,0821,12257,030.0,045.5,0.253,751.0,01.17,0.508
2015-08-24 00:46:00,2003E-3,5C000400,-0724,0821,12287,030.0,045.5,0.253,750.8,01.17,0.508
2015-08-24 00:47:00,2291E-3,5C000400,-0724,0821,12207,030.0,045.5,0.252,750.8,01.17,0.508
2015-08-24 00:48:00,2097E-3,5C000400,-0724,0820,12343,030.0,045.5,0.253,750.7,01.17,0.508
2015-08-24 00:49:00,2141E-3,5C000400,-0724,0821,12385,030.0,045.5,0.253,750.8,01.17,0.508
2015-08-24 00:50:00,2205E-3,5C000400,-0724,0821,12298,030.0,045.5,0.253,750.5,01.17,0.508
2015-08-24 00:51:00,1989E-3,5C000400,-0724,0820,12394,030.0,045.5,0.253,750.6,01.17,0.508
2015-08-24 00:52:00,2216E-3,5C000400,-0724,0821,12238,030.0,045.5,0.253,750.8,01.17,0.508
2015-08-24 00:53:00,2167E-3,5C000400,-0724,0821,12345,030.0,045.5,0.253,751.0,01.17,0.508
2015-08-24 00:54:00,2116E-3,5C000400,-0724,0821,12181,030.0,045.5,0.252,750.7,01.17,0.508
2015-08-24 00:55:00,2224E-3,5C000400,-0724,0822,12315,030.0,045.5,0.253,750.9,01.17,0.508
2015-08-24 00:56:00,2229E-3,5C000400,-0724,0822,12289,030.0,045.5,0.253,751.0,01.17,0.508
2015-08-24 00:57:00,2140E-3,5C000400,-0724,0821,12262,030.0,045.5,0.253,751.1,01.17,0.508
2015-08-24 00:58:00,2171E-3,5C000400,-0724,0820,12393,030.0,045.5,0.253,751.0,01.17,0.508
2015-08-24 00:59:00,2083E-3,5C000400,-0724,0821,12204,030.0,045.5,0.253,751.0,01.17,0.508
2015-08-24 01:00:00,2019E-3,5C000400,-0724,0821,12425,030.0,045.5,0.253,751.0,01.17,0.508
2015-08-24 01:01:00,2127E-3,5C000400,-0724,0821,12336,030.0,045.5,0.252,751.0,01.17,0.508
2015-08-24 01:02:00,2171E-3,5C000400,-0724,0822,12308,030.0,045.5,0.253,751.0,01.17,0.508
2015-08-24 01:03:00,2047E-3,5C000400,-0724,0820,12339,030.0,045.5,0.253,751.2,01.17,0.508
2015-08-24 01:04:00,2169E-3,5C000400,-0724,0821,12392,030.0,045.5,0.253,751.2,01.17,0.508
2015-08-24 01:05:00,2160E-3,5C000400,-0724,0820,12359,030.0,045.5,0.253,751.2,01.17,0.508
2015-08-24 01:06:00,1997E-3,5C000400,-0724,0821,12273,030.0,045.5,0.253,751.2,01.17,0.508
2015-08-24 01:07:00,2125E-3,5C000400,-0724,0821,12396,030.0,045.5,0.253,751.3,01.17,0.508
2015-08-24 01:08:00,2177E-3,5C000400,-0724,0822,12129,030.0,045.5,0.252,751.3,01.17,0.508
2015-08-24 01:09:00,2000E-3,5C000400,-0724,0821,12277,030.0,045.5,0.253,751.3,01.17,0.508
2015-08-24 01:10:00,2023E-3,5C000400,-0724,0821,12247,030.0,045.5,0.253,751.0,01.17,0.508
2015-08-24 01:11:00,2101E-3,5C000400,-0724,0822,12232,030.0,045.5,0.253,751.3,01.17,0.508
2015-08-24 01:12:00,2103E-3,5C000400,-0724,0821,12386,030.0,045.5,0.252,751.2,01.17,0.508
2015-08-24 01:13:00,2189E-3,5C000400,-0724,0821,12171,030.0,045.5,0.253,751.2,01.17,0.508
2015-08-24 01:14:00,2108E-3,5C000400,-0724,0821,12249,030.0,045.5,0.253,751.3,01.17,0.508
2015-08-24 01:15:00,2100E-3,5C000400,-0724,0821,12323,030.0,045.5,0.253,751.3,01.17,0.508
2015-08-24 01:16:00,2102E-3,5C000400,-0724,0821,12263,030.0,045.5,0.252,751.4,01.17,0.508
2015-08-24 01:17:00,2090E-3,5C000400,-0724,0821,12282,030.0,045.5,0.253,751.3,01.17,0.508
2015-08-24 01:18:00,2238E-3,5C000400,-0724,0821,12143,030.0,045.5,0.253,751.3,01.17,0.508
2015-08-24 01:19:00,2175E-3,5C000400,-0724,0821,12210,030.0,045.5,0.253,751.5,01.17,0.508
2015-08-24 01:20:00,2071E-3,5C000400,-0724,0822,12251,030.0,045.5,0.252,751.4,01.17,0.508
2015-08-24 01:21:00,2193E-3,5C000400,-0724,0821,12415,030.0,045.5,0.253,751.5,01.17,0.508
2015-08-24 01:22:00,2208E-3,5C000400,-0724,0820,12217,030.0,045.5,0.253,751.6,01.17,0.508
2015-08-24 01:23:00,2038E-3,5C000400,-0724,0820,12203,030.0,045.5,0.253,751.5,01.17,0.508
2015-08-24 01:24:00,2247E-3,5C000400,-0724,0820,12393,030.0,045.5,0.253,751.4,01.17,0.508
2015-08-24 01:25:00,2128E-3,5C000400,-0724,0821,12269,030.0,045.5,0.253,751.4,01.17,0.508
2015-08-24 01:26:00,2126E-3,5C000400,-0724,0821,12350,030.0,045.5,0.253,751.3,01.17,0.508
2015-08-24 01:27:00,2094E-3,5C000400,-0724,0821,12328,030.1,045.5,0.253,751.3,01.17,0.508
2015-08-24 01:28:00,2090E-3,5C000400,-0724,0821,12457,030.0,045.5,0.253,751.5,01.17,0.508
2015-08-24 01:29:00,2044E-3,5C000400,-0724,0821,12110,030.1,045.5,0.253,751.5,01.17,0.508
2015-08-24 01:30:00,2031E-3,5C000400,-0724,0821,12347,030.0,045.5,0.252,751.5,01.17,0.508
2015-08-24 01:31:00,2045E-3,5C000400,-0724,0822,12314,030.0,045.5,0.253,751.5,01.17,0.508
2015-08-24 01:32:00,2050E-3,5C000400,-0724,0821,12356,030.1,045.5,0.253,751.5,01.17,0.508
2015-08-24 01:33:00,2122E-3,5C000400,-0724,0821,12340,030.1,045.5,0.253,751.4,01.17,0.508
2015-08-24 01:34:00,2011E-3,5C000400,-0724,0821,12297,030.1,045.5,0.252,751.5,01.17,0.508
2015-08-24 01:35:00,2074E-3,5C000400,-0724,0822,12340,030.1,045.5,0.253,751.4,01.17,0.508
2015-08-24 01:36:00,2267E-3,5C000400,-0724,0820,12121,030.0,045.5,0.253,751.4,01.17,0.508
2015-08-24 01:37:00,2170E-3,5C000400,-0724,0821,12390,030.0,045.5,0.253,751.5,01.17,0.508
2015-08-24 01:38:00,1996E-3,5C000400,-0724,0821,12310,030.1,045.5,0.252,751.5,01.17,0.508
2015-08-24 01:39:00,2113E-3,5C000400,-0724,0820,12218,030.1,045.5,0.253,751.5,01.17,0.508
2015-08-24 01:40:00,2163E-3,5C000400,-0724,0821,12258,030.1,045.5,0.253,751.4,01.17,0.508
2015-08-24 01:41:00,2082E-3,5C000400,-0724,0820,12188,030.1,045.5,0.253,751.3,01.17,0.508
2015-08-24 01:42:00,2174E-3,5C000400,-0724,0821,12176,030.1,045.5,0.252,751.2,01.17,0.508
2015-08-24 01:43:00,2129E-3,5C000400,-0724,0821,12177,030.1,045.5,0.253,751.3,01.17,0.508
2015-08-24 01:44:00,2065E-3,5C000400,-0724,0820,12282,030.1,045.5,0.253,751.3,01.17,0.508
2015-08-24 01:45:00,2073E-3,5C000400,-0724,0820,12163,030.1,045.5,0.253,751.1,01.17,0.508
2015-08-24 01:46:00,2121E-3,5C000400,-0724,0820,12160,030.0,045.5,0.253,751.4,01.17,0.508
2015-08-24 01:47:00,2053E-3,5C000400,-0724,0821,12234,030.1,045.5,0.252,751.4,01.17,0.508
2015-08-24 01:48:00,2208E-3,5C000400,-0724,0821,12229,030.1,045.5,0.253,751.1,01.17,0.508
2015-08-24 01:49:00,2115E-3,5C000400,-0724,0820,12079,030.1,045.5,0.253,751.4,01.17,0.508
2015-08-24 01:50:00,2201E-3,5C000400,-0724,0821,12246,030.1,045.5,0.253,751.4,01.17,0.508
2015-08-24 01:51:00,2045E-3,5C000400,-0724,0821,12287,030.1,045.5,0.252,751.4,01.17,0.508
2015-08-24 01:52:00,2208E-3,5C000400,-0724,0820,12323,030.1,045.5,0.252,751.4,01.17,0.508
2015-08-24 01:53:00,2082E-3,5C000400,-0724,0820,12315,030.1,045.5,0.253,751.4,01.17,0.508
2015-08-24 01:54:00,2157E-3,5C000400,-0724,0821,12260,030.1,045.5,0.253,751.5,01.17,0.508
2015-08-24 01:55:00,2214E-3,5C000400,-0724,0821,12385,030.1,045.5,0.253,751.4,01.17,0.508
2015-08-24 01:56:00,2129E-3,5C000400,-0724,0821,12330,030.1,045.5,0.252,751.5,01.17,0.508
2015-08-24 01:57:00,2143E-3,5C000400,-0724,0821,12368,030.1,045.5,0.253,751.3,01.17,0.508
2015-08-24 01:58:00,2091E-3,5C000400,-0724,0820,12273,030.1,045.5,0.253,751.3,01.17,0.508
2015-08-24 01:59:00,2049E-3,5C000400,-0724,0821,12276,030.1,045.5,0.253,751.3,01.17,0.508
2015-08-24 02:00:00,2145E-3,5C000400,-0724,0821,12302,030.1,045.5,0.253,751.1,01.17,0.508
2015-08-24 02:01:00,2256E-3,5C000400,-0724,0820,12191,030.1,045.5,0.252,751.4,01.17,0.508
2015-08-24 02:02:00,2159E-3,5C000400,-0724,0821,12417,030.1,045.5,0.252,751.3,01.17,0.508
2015-08-24 02:03:00,2120E-3,5C000400,-0724,0821,12359,030.1,045.5,0.253,751.2,01.17,0.508
2015-08-24 02:04:00,2065E-3,5C000400,-0724,0821,12229,030.1,045.5,0.253,751.4,01.17,0.508
2015-08-24 02:05:00,2145E-3,5C000400,-0724,0821,12339,030.1,045.5,0.253,751.5,01.17,0.508
2015-08-24 02:06:00,2135E-3,5C000400,-0724,0820,12326,030.1,045.5,0.252,751.4,01.17,0.508
2015-08-24 02:07:00,2108E-3,5C000400,-0724,0821,12360,030.1,045.5,0.252,751.4,01.17,0.508
2015-08-24 02:08:00,2134E-3,5C000400,-0724,0821,12310,030.1,045.5,0.253,751.5,01.17,0.508
2015-08-24 02:09:00,2135E-3,5C000400,-0724,0821,12277,030.1,045.5,0.253,751.2,01.17,0.508
2015-08-24 02:10:00,2148E-3,5C000400,-0724,0821,12268,030.1,045.5,0.253,751.3,01.17,0.508
2015-08-24 02:11:00,1878E-3,5C000400,-0724,0821,12319,030.1,045.5,0.253,751.3,01.17,0.508
2015-08-24 02:12:00,2304E-3,5C000400,-0724,0820,12192,030.1,045.5,0.252,751.5,01.17,0.508
2015-08-24 02:13:00,2137E-3,5C000400,-0724,0820,12127,030.1,045.5,0.252,751.5,01.17,0.508
2015-08-24 02:14:00,2119E-3,5C000400,-0724,0820,12226,030.1,045.5,0.253,751.3,01.17,0.508
2015-08-24 02:15:00,2059E-3,5C000400,-0724,0821,12407,030.1,045.5,0.253,751.4,01.17,0.508
2015-08-24 02:16:00,2099E-3,5C000400,-0724,0821,12363,030.1,045.5,0.253,751.5,01.17,0.508
2015-08-24 02:17:00,1942E-3,5C000400,-0724,0821,12297,030.1,045.5,0.252,751.3,01.17,0.508
2015-08-24 02:18:00,2026E-3,5C000400,-0724,0820,12280,030.1,045.5,0.252,751.5,01.17,0.508
2015-08-24 02:19:00,2213E-3,5C000400,-0724,0821,12336,030.1,045.5,0.253,751.4,01.17,0.508
2015-08-24 02:20:00,2122E-3,5C000400,-0724,0821,12237,030.1,045.5,0.253,751.6,01.17,0.508
2015-08-24 02:21:00,2177E-3,5C000400,-0724,0821,12199,030.1,045.5,0.253,751.6,01.17,0.508
2015-08-24 02:22:00,2010E-3,5C000400,-0724,0821,12157,030.1,045.5,0.253,751.7,01.17,0.508
2015-08-24 02:23:00,2078E-3,5C000400,-0724,0821,12280,030.1,045.5,0.253,751.8,01.17,0.508
2015-08-24 02:24:00,2182E-3,5C000400,-0724,0820,12325,030.1,045.5,0.252,751.6,01.17,0.508
2015-08-24 02:25:00,2112E-3,5C000400,-0724,0821,12219,030.1,045.5,0.253,751.6,01.17,0.508
2015-08-24 02:26:00,2158E-3,5C000400,-0724,0820,12268,030.1,045.5,0.253,751.9,01.17,0.508
2015-08-24 02:27:00,2212E-3,5C000400,-0724,0821,12184,030.1,045.5,0.253,752.0,01.17,0.508
2015-08-24 02:28:00,2119E-3,5C000400,-0724,0822,12294,030.1,045.5,0.253,752.0,01.17,0.508
2015-08-24 02:29:00,2170E-3,5C000400,-0724,0821,12271,030.1,045.5,0.252,752.0,01.17,0.508
2015-08-24 02:30:00,2118E-3,5C000400,-0724,0821,12271,030.1,045.5,0.252,752.0,01.17,0.508
2015-08-24 02:31:00,2135E-3,5C000400,-0724,0821,12328,030.1,045.5,0.253,751.9,01.17,0.508
2015-08-24 02:32:00,1948E-3,5C000400,-0724,0821,12296,030.1,045.5,0.253,751.9,01.17,0.508
2015-08-24 02:33:00,2093E-3,5C000400,-0724,0821,12377,030.1,045.5,0.253,751.7,01.17,0.508
2015-08-24 02:34:00,1984E-3,5C000400,-0724,0820,12195,030.1,045.5,0.252,751.7,01.17,0.508
2015-08-24 02:35:00,2245E-3,5C000400,-0724,0821,12241,030.1,045.5,0.252,751.7,01.17,0.508
2015-08-24 02:36:00,2223E-3,5C000400,-0724,0821,12304,030.1,045.5,0.253,751.6,01.17,0.508
2015-08-24 02:37:00,2038E-3,5C000400,-0724,0821,12354,030.1,045.5,0.253,751.8,01.17,0.508
2015-08-24 02:38:00,2265E-3,5C000400,-0724,0821,12245,030.1,045.5,0.253,751.6,01.17,0.508
2015-08-24 02:39:00,1954E-3,5C000400,-0724,0821,12403,030.1,045.5,0.252,751.6,01.17,0.508
2015-08-24 02:40:00,2051E-3,5C000400,-0724,0821,12350,030.1,045.5,0.252,751.6,01.17,0.508
2015-08-24 02:41:00,2055E-3,5C000400,-0724,0821,12282,030.1,045.5,0.253,751.6,01.17,0.508
2015-08-24 02:42:00,1945E-3,5C000400,-0724,0820,12305,030.1,045.5,0.253,751.4,01.17,0.508
2015-08-24 02:43:00,2185E-3,5C000400,-0724,0821,12377,030.2,045.5,0.253,751.7,01.17,0.508
2015-08-24 02:44:00,2008E-3,5C000400,-0724,0820,12230,030.1,045.5,0.252,751.8,01.17,0.508
2015-08-24 02:45:00,2213E-3,5C000400,-0724,0820,12299,030.2,045.5,0.252,751.9,01.17,0.508
2015-08-24 02:46:00,2111E-3,5C000400,-0724,0821,12365,030.1,045.5,0.252,751.7,01.17,0.508
2015-08-24 02:47:00,2008E-3,5C000400,-0724,0820,12255,030.1,045.5,0.253,751.8,01.17,0.508
2015-08-24 02:48:00,2132E-3,5C000400,-0724,0820,12169,030.2,045.5,0.253,752.1,01.17,0.508
2015-08-24 02:49:00,1939E-3,5C000400,-0724,0820,12303,030.2,045.5,0.252,751.8,01.17,0.508
2015-08-24 02:50:00,1935E-3,5C000400,-0724,0820,12396,030.2,045.5,0.252,751.8,01.17,0.508
2015-08-24 02:51:00,2161E-3,5C000400,-0724,0820,12120,030.2,045.5,0.253,751.7,01.17,0.508
2015-08-24 02:52:00,2068E-3,5C000400,-0724,0820,12312,030.2,045.5,0.253,752.0,01.17,0.508
2015-08-24 02:53:00,2057E-3,5C000400,-0724,0821,12225,030.2,045.5,0.252,752.0,01.17,0.508
2015-08-24 02:54:00,2038E-3,5C000400,-0724,0821,12227,030.2,045.5,0.252,751.9,01.17,0.508
2015-08-24 02:55:00,2160E-3,5C000400,-0724,0821,12308,030.2,045.5,0.252,752.1,01.17,0.508
2015-08-24 02:56:00,2190E-3,5C000400,-0724,0821,12338,030.2,045.5,0.252,752.0,01.17,0.508
2015-08-24 02:57:00,2235E-3,5C000400,-0724,0820,12296,030.2,045.5,0.253,752.1,01.17,0.508
2015-08-24 02:58:00,1964E-3,5C000400,-0724,0821,12247,030.2,045.5,0.253,752.0,01.17,0.508
2015-08-24 02:59:00,2060E-3,5C000400,-0724,0821,12212,030.2,045.5,0.253,752.2,01.17,0.508
2015-08-24 03:00:00,2109E-3,5C000400,-0724,0820,12081,030.2,045.5,0.252,752.2,01.17,0.508
2015-08-24 03:01:00,2080E-3,5C000400,-0724,0820,12306,030.2,045.5,0.252,752.0,01.17,0.508
2015-08-24 03:02:00,2091E-3,5C000400,-0724,0820,12401,030.2,045.5,0.252,752.1,01.17,0.508
2015-08-24 03:03:00,2166E-3,5C000400,-0724,0820,12359,030.2,045.5,0.253,752.1,01.17,0.508
2015-08-24 03:04:00,2002E-3,5C000400,-0724,0820,12159,030.2,045.5,0.253,751.9,01.17,0.508
2015-08-24 03:05:00,2028E-3,5C000400,-0724,0821,12435,030.2,045.5,0.252,752.2,01.17,0.508
2015-08-24 03:06:00,2177E-3,5C000400,-0724,0820,12111,030.3,045.5,0.252,752.2,01.17,0.508
2015-08-24 03:07:00,2087E-3,5C000400,-0724,0821,12240,030.2,045.5,0.252,751.9,01.17,0.508
2015-08-24 03:08:00,2352E-3,5C000400,-0724,0820,12310,030.3,045.5,0.252,752.0,01.17,0.508
2015-08-24 03:09:00,2076E-3,5C000400,-0724,0820,12304,030.2,045.5,0.252,752.1,01.17,0.508
2015-08-24 03:10:00,2151E-3,5C000400,-0724,0820,12504,030.2,045.5,0.253,752.1,01.17,0.508
2015-08-24 03:11:00,2128E-3,5C000400,-0724,0820,12245,030.3,045.5,0.252,752.1,01.17,0.508
2015-08-24 03:12:00,2111E-3,5C000400,-0724,0821,12391,030.3,045.5,0.252,752.4,01.17,0.508
2015-08-24 03:13:00,2090E-3,5C000400,-0724,0819,12178,030.3,045.5,0.252,752.2,01.17,0.508
2015-08-24 03:14:00,1995E-3,5C000400,-0724,0821,12234,030.3,045.5,0.252,752.1,01.17,0.508
2015-08-24 03:15:00,2109E-3,5C000400,-0724,0821,12076,030.3,045.5,0.252,752.3,01.17,0.508
2015-08-24 03:16:00,2065E-3,5C000400,-0724,0820,12238,030.3,045.5,0.252,752.3,01.17,0.508
2015-08-24 03:17:00,2201E-3,5C000400,-0724,0820,12095,030.3,045.5,0.253,752.2,01.17,0.508
2015-08-24 03:18:00,2033E-3,5C000400,-0724,0820,12343,030.3,045.5,0.252,752.3,01.17,0.508
2015-08-24 03:19:00,2037E-3,5C000400,-0724,0820,12316,030.3,045.5,0.252,752.3,01.17,0.508
2015-08-24 03:20:00,2046E-3,5C000400,-0724,0820,12264,030.3,045.5,0.252,752.2,01.17,0.508
2015-08-24 03:21:00,2093E-3,5C000400,-0724,0820,12312,030.3,045.5,0.252,752.4,01.17,0.508
2015-08-24 03:22:00,2154E-3,5C000400,-0724,0819,12280,030.3,045.5,0.252,752.4,01.17,0.508
2015-08-24 03:23:00,2069E-3,5C000400,-0724,0821,12317,030.3,045.5,0.253,752.5,01.17,0.508
2015-08-24 03:24:00,2168E-3,5C000400,-0724,0821,12327,030.3,045.5,0.253,752.3,01.17,0.508
2015-08-24 03:25:00,2173E-3,5C000400,-0724,0821,12286,030.3,045.5,0.253,752.2,01.17,0.508
2015-08-24 03:26:00,2237E-3,5C000400,-0724,0821,12235,030.3,045.5,0.253,752.4,01.17,0.508
2015-08-24 03:27:00,2155E-3,5C000400,-0724,0820,12416,030.3,045.5,0.252,752.3,01.17,0.508
2015-08-24 03:28:00,2041E-3,5C000400,-0724,0821,12221,030.3,045.5,0.252,752.4,01.17,0.508
2015-08-24 03:29:00,2194E-3,5C000400,-0724,0820,12416,030.3,045.5,0.252,752.4,01.17,0.508
2015-08-24 03:30:00,2016E-3,5C000400,-0724,0821,12494,030.3,045.5,0.252,752.5,01.17,0.508
2015-08-24 03:31:00,2092E-3,5C000400,-0724,0819,12153,030.3,045.5,0.252,752.3,01.17,0.508
2015-08-24 03:32:00,2197E-3,5C000400,-0724,0820,12222,030.3,045.5,0.252,752.5,01.17,0.508
2015-08-24 03:33:00,2017E-3,5C000400,-0724,0821,12292,030.4,045.5,0.252,752.5,01.17,0.508
2015-08-24 03:34:00,2120E-3,5C000400,-0724,0821,12238,030.4,045.5,0.252,752.7,01.17,0.508
2015-08-24 03:35:00,2217E-3,5C000400,-0724,0821,12261,030.4,045.5,0.252,752.6,01.17,0.508
2015-08-24 03:36:00,2359E-3,5C000400,-0724,0821,12369,030.4,045.5,0.252,752.6,01.17,0.508
2015-08-24 03:37:00,2048E-3,5C000400,-0724,0821,12290,030.4,045.5,0.252,752.7,01.17,0.508
2015-08-24 03:38:00,2125E-3,5C000400,-0724,0820,12389,030.4,045.5,0.252,752.5,01.17,0.508
2015-08-24 03:39:00,2129E-3,5C000400,-0724,0821,12188,030.4,045.5,0.252,752.6,01.17,0.508
2015-08-24 03:40:00,1949E-3,5C000400,-0724,0821,12374,030.4,045.6,0.252,752.5,01.17,0.508
2015-08-24 03:41:00,2157E-3,5C000400,-0724,0821,12126,030.4,045.5,0.252,752.6,01.17,0.508
2015-08-24 03:42:00,2153E-3,5C000400,-0724,0821,12339,030.4,045.5,0.252,752.8,01.17,0.508
2015-08-24 03:43:00,2140E-3,5C000400,-0724,0819,12206,030.4,045.5,0.252,752.7,01.17,0.508
2015-08-24 03:44:00,2038E-3,5C000400,-0724,0820,12411,030.4,045.5,0.252,752.6,01.17,0.508
2015-08-24 03:45:00,2049E-3,5C000400,-0724,0821,12210,030.4,045.5,0.252,752.5,01.17,0.508
2015-08-24 03:46:00,2123E-3,5C000400,-0724,0821,12271,030.4,045.5,0.252,752.8,01.17,0.508
2015-08-24 03:47:00,2230E-3,5C000400,-0724,0820,12174,030.5,045.5,0.252,752.7,01.17,0.508
2015-08-24 03:48:00,1997E-3,5C000400,-0724,0820,12249,030.4,045.5,0.252,752.8,01.17,0.508
2015-08-24 03:49:00,1957E-3,5C000400,-0724,0821,12157,030.4,045.5,0.252,752.6,01.17,0.508
2015-08-24 03:50:00,2149E-3,5C000400,-0724,0821,12256,030.5,045.5,0.252,752.7,01.17,0.508
2015-08-24 03:51:00,2153E-3,5C000400,-0724,0820,12240,030.5,045.5,0.252,752.7,01.17,0.508
2015-08-24 03:52:00,2090E-3,5C000400,-0724,0819,12313,030.5,045.5,0.252,752.7,01.17,0.508
2015-08-24 03:53:00,2108E-3,5C000400,-0724,0821,12269,030.5,045.5,0.252,752.7,01.17,0.508
2015-08-24 03:54:00,2175E-3,5C000400,-0724,0820,12194,030.5,045.5,0.252,752.5,01.17,0.508
2015-08-24 03:55:00,2079E-3,5C000400,-0724,0821,12179,030.5,045.5,0.252,752.5,01.17,0.508
2015-08-24 03:56:00,2261E-3,5C000400,-0724,0820,12203,030.5,045.6,0.252,752.7,01.17,0.508
2015-08-24 03:57:00,2089E-3,5C000400,-0724,0821,12345,030.5,045.6,0.252,752.7,01.17,0.508
2015-08-24 03:58:00,1960E-3,5C000400,-0724,0820,12320,030.5,045.5,0.252,752.8,01.17,0.508
2015-08-24 03:59:00,2081E-3,5C000400,-0724,0821,12252,030.5,045.5,0.252,752.7,01.17,0.508
2015-08-24 04:00:00,2139E-3,5C000400,-0724,0820,12216,030.5,045.5,0.252,752.7,01.17,0.508
2015-08-24 04:01:00,2092E-3,5C000400,-0724,0820,12329,030.5,045.5,0.252,752.7,01.17,0.508
2015-08-24 04:02:00,1975E-3,5C000400,-0724,0821,12136,030.5,045.5,0.252,752.7,01.17,0.508
2015-08-24 04:03:00,2119E-3,5C000400,-0724,0821,12316,030.6,045.5,0.251,752.7,01.17,0.508
2015-08-24 04:04:00,2035E-3,5C000400,-0724,0821,12310,030.5,045.5,0.252,752.8,01.17,0.508
2015-08-24 04:05:00,2090E-3,5C000400,-0724,0821,12113,030.5,045.5,0.252,752.8,01.17,0.508
2015-08-24 04:06:00,2151E-3,5C000400,-0724,0820,12280,030.5,045.5,0.252,752.8,01.17,0.508
2015-08-24 04:07:00,2122E-3,5C000400,-0724,0820,12392,030.6,045.5,0.252,752.8,01.17,0.508
2015-08-24 04:08:00,2138E-3,5C000400,-0724,0820,12270,030.6,045.6,0.252,752.9,01.17,0.508
2015-08-24 04:09:00,2114E-3,5C000400,-0724,0820,12238,030.5,045.5,0.251,752.8,01.17,0.508
2015-08-24 04:10:00,2108E-3,5C000400,-0724,0821,12269,030.6,045.5,0.252,752.8,01.17,0.508
2015-08-24 04:11:00,2120E-3,5C000400,-0724,0820,12220,030.6,045.5,0.252,752.8,01.17,0.508
2015-08-24 04:12:00,2131E-3,5C000400,-0724,0820,12241,030.5,045.5,0.252,753.0,01.17,0.508
2015-08-24 04:13:00,2063E-3,5C000400,-0724,0820,12368,030.6,045.6,0.252,753.0,01.17,0.508
2015-08-24 04:14:00,2106E-3,5C000400,-0724,0821,12313,030.6,045.5,0.252,753.0,01.17,0.508
2015-08-24 04:15:00,2222E-3,5C000400,-0724,0821,12301,030.6,045.5,0.251,753.0,01.17,0.508
2015-08-24 04:16:00,2146E-3,5C000400,-0724,0820,12237,030.6,045.5,0.252,753.0,01.17,0.508
2015-08-24 04:17:00,2098E-3,5C000400,-0724,0820,12304,030.6,045.5,0.252,753.0,01.17,0.508
2015-08-24 04:18:00,2114E-3,5C000400,-0724,0819,12451,030.6,045.5,0.252,753.1,01.17,0.508
2015-08-24 04:19:00,2289E-3,5C000400,-0724,0819,12201,030.6,045.6,0.252,753.2,01.17,0.508
2015-08-24 04:20:00,2068E-3,5C000400,-0724,0820,12308,030.6,045.5,0.252,753.2,01.17,0.508